Time,TemperatureF,DewpointF,PressureIn,WindDirection,WindDirectionDegrees,WindSpeedMPH,WindSpeedGustMPH,Humidity,HourlyPrecipIn,Conditions,Clouds,dailyrainin,SolarRadiationWatts/m^2,SoftwareType,DateUTC
2013-02-26 00:02:00,18.0,17.0,-100.00,NNW,340,3.0,6.0,96,0.00,,,0.00,0.000000,,2013-02-26 06:02:00,
2013-02-26 00:11:00,17.0,16.0,-100.00,North,350,3.0,6.0,95,0.00,,,0.00,0.000000,,2013-02-26 06:11:00,
2013-02-26 00:32:00,17.0,16.0,-100.00,North,350,3.0,6.0,95,0.00,,,0.00,0.000000,,2013-02-26 06:32:00,
2013-02-26 00:42:00,17.0,16.0,-100.00,North,350,3.0,6.0,95,0.00,,,0.00,0.000000,,2013-02-26 06:42:00,
2013-02-26 00:52:00,17.0,16.0,-100.00,North,350,3.0,6.0,95,0.00,,,0.00,0.000000,,2013-02-26 06:52:00,
2013-02-26 01:01:00,17.0,16.0,-100.00,North,350,3.0,6.0,95,0.00,,,0.00,0.000000,,2013-02-26 07:01:00,
2013-02-26 01:11:00,16.0,15.0,-100.00,NNE,24,2.0,5.0,94,0.00,,,0.00,0.000000,,2013-02-26 07:11:00,
2013-02-26 01:32:00,16.0,15.0,-100.00,NNE,24,2.0,5.0,94,0.00,,,0.00,0.000000,,2013-02-26 07:32:00,
2013-02-26 01:42:00,16.0,15.0,-100.00,NNE,24,2.0,5.0,94,0.00,,,0.00,0.000000,,2013-02-26 07:42:00,
2013-02-26 01:52:00,16.0,15.0,-100.00,NNE,24,2.0,5.0,94,0.00,,,0.00,0.000000,,2013-02-26 07:52:00,
2013-02-26 02:02:00,16.0,15.0,-100.00,NNE,24,2.0,5.0,94,0.00,,,0.00,0.000000,,2013-02-26 08:02:00,
2013-02-26 02:11:00,15.0,14.0,-100.00,NNW,344,3.0,5.0,94,0.00,,,0.00,0.000000,,2013-02-26 08:11:00,
2013-02-26 02:32:00,15.0,14.0,-100.00,NNW,344,3.0,5.0,94,0.00,,,0.00,0.000000,,2013-02-26 08:32:00,
2013-02-26 02:42:00,15.0,14.0,-100.00,NNW,344,3.0,5.0,94,0.00,,,0.00,0.000000,,2013-02-26 08:42:00,
2013-02-26 02:52:00,15.0,14.0,-100.00,NNW,344,3.0,5.0,94,0.00,,,0.00,0.000000,,2013-02-26 08:52:00,
2013-02-26 03:02:00,15.0,14.0,-100.00,NNW,344,3.0,5.0,94,0.00,,,0.00,0.000000,,2013-02-26 09:02:00,
2013-02-26 03:11:00,15.0,13.0,-100.00,NNW,335,3.0,5.0,93,0.00,,,0.00,0.000000,,2013-02-26 09:11:00,
2013-02-26 03:43:00,15.0,13.0,-100.00,NNW,335,3.0,5.0,93,0.00,,,0.00,0.000000,,2013-02-26 09:43:00,
2013-02-26 03:52:00,15.0,13.0,-100.00,NNW,335,3.0,5.0,93,0.00,,,0.00,0.000000,,2013-02-26 09:52:00,
2013-02-26 04:01:00,15.0,13.0,-100.00,NNW,335,3.0,5.0,93,0.00,,,0.00,0.000000,,2013-02-26 10:01:00,
2013-02-26 04:11:00,13.0,11.0,-100.00,NNW,344,4.0,5.0,92,0.00,,,0.00,0.000000,,2013-02-26 10:11:00,
2013-02-26 04:32:00,13.0,11.0,-100.00,NNW,344,4.0,5.0,92,0.00,,,0.00,0.000000,,2013-02-26 10:32:00,
2013-02-26 04:42:00,13.0,11.0,-100.00,NNW,344,4.0,5.0,92,0.00,,,0.00,0.000000,,2013-02-26 10:42:00,
2013-02-26 04:52:00,13.0,11.0,-100.00,NNW,344,4.0,5.0,92,0.00,,,0.00,0.000000,,2013-02-26 10:52:00,
2013-02-26 05:01:00,13.0,11.0,-100.00,NNW,344,4.0,5.0,92,0.00,,,0.00,0.000000,,2013-02-26 11:01:00,
2013-02-26 05:11:00,14.0,12.0,-100.00,North,358,5.0,6.0,92,0.00,,,0.00,0.000000,,2013-02-26 11:11:00,
2013-02-26 05:32:00,14.0,12.0,-100.00,North,358,5.0,6.0,92,0.00,,,0.00,0.000000,,2013-02-26 11:32:00,
2013-02-26 05:42:00,14.0,12.0,-100.00,North,358,5.0,6.0,92,0.00,,,0.00,0.000000,,2013-02-26 11:42:00,
2013-02-26 05:52:00,14.0,12.0,-100.00,North,358,5.0,6.0,92,0.00,,,0.00,0.000000,,2013-02-26 11:52:00,
2013-02-26 06:01:00,14.0,12.0,-100.00,North,358,5.0,6.0,92,0.00,,,0.00,0.000000,,2013-02-26 12:01:00,
2013-02-26 06:11:00,14.0,12.0,-100.00,North,11,5.0,7.0,92,0.00,,,0.00,0.000000,,2013-02-26 12:11:00,
2013-02-26 06:32:00,14.0,12.0,-100.00,North,11,5.0,7.0,92,0.00,,,0.00,0.000000,,2013-02-26 12:32:00,
2013-02-26 06:42:00,14.0,12.0,-100.00,North,11,5.0,7.0,92,0.00,,,0.00,0.000000,,2013-02-26 12:42:00,
2013-02-26 06:53:00,14.0,12.0,-100.00,North,11,5.0,7.0,92,0.00,,,0.00,0.000000,,2013-02-26 12:53:00,
2013-02-26 07:01:00,14.0,12.0,-100.00,North,11,5.0,7.0,92,0.00,,,0.00,0.000000,,2013-02-26 13:01:00,
2013-02-26 07:11:00,14.0,12.0,-100.00,North,5,3.0,5.0,92,0.00,,,0.00,1.000000,,2013-02-26 13:11:00,
2013-02-26 07:42:00,14.0,12.0,-100.00,North,5,3.0,5.0,92,0.00,,,0.00,1.000000,,2013-02-26 13:42:00,
2013-02-26 07:52:00,14.0,12.0,-100.00,North,5,3.0,5.0,92,0.00,,,0.00,1.000000,,2013-02-26 13:52:00,
2013-02-26 08:01:00,14.0,12.0,-100.00,North,5,3.0,5.0,92,0.00,,,0.00,1.000000,,2013-02-26 14:01:00,
2013-02-26 08:11:00,15.0,13.0,-100.00,North,7,5.0,6.0,92,0.00,,,0.00,28.000000,,2013-02-26 14:11:00,
2013-02-26 08:32:00,15.0,13.0,-100.00,North,7,5.0,6.0,92,0.00,,,0.00,28.000000,,2013-02-26 14:32:00,
2013-02-26 08:42:00,15.0,13.0,-100.00,North,7,5.0,6.0,92,0.00,,,0.00,28.000000,,2013-02-26 14:42:00,
2013-02-26 08:52:00,15.0,13.0,-100.00,North,7,5.0,6.0,92,0.00,,,0.00,28.000000,,2013-02-26 14:52:00,
2013-02-26 09:02:00,15.0,13.0,-100.00,North,7,5.0,6.0,92,0.00,,,0.00,28.000000,,2013-02-26 15:02:00,
2013-02-26 09:11:00,17.0,15.0,-100.00,NNE,17,4.0,6.0,92,0.00,,,0.00,125.000000,,2013-02-26 15:11:00,
2013-02-26 09:32:00,17.0,15.0,-100.00,NNE,17,4.0,6.0,92,0.00,,,0.00,125.000000,,2013-02-26 15:32:00,
2013-02-26 09:42:00,17.0,15.0,-100.00,NNE,17,4.0,6.0,92,0.00,,,0.00,125.000000,,2013-02-26 15:42:00,
2013-02-26 09:52:00,17.0,15.0,-100.00,NNE,17,4.0,6.0,92,0.00,,,0.00,125.000000,,2013-02-26 15:52:00,
2013-02-26 10:01:00,17.0,15.0,-100.00,NNE,17,4.0,6.0,92,0.00,,,0.00,125.000000,,2013-02-26 16:01:00,
2013-02-26 10:11:00,20.0,18.0,-100.00,NNE,31,3.0,5.0,93,0.00,,,0.00,230.000000,,2013-02-26 16:11:00,
2013-02-26 10:32:00,20.0,18.0,-100.00,NNE,31,3.0,5.0,93,0.00,,,0.00,230.000000,,2013-02-26 16:32:00,
2013-02-26 10:42:00,20.0,18.0,-100.00,NNE,31,3.0,5.0,93,0.00,,,0.00,230.000000,,2013-02-26 16:42:00,
2013-02-26 10:52:00,20.0,18.0,-100.00,NNE,31,3.0,5.0,93,0.00,,,0.00,230.000000,,2013-02-26 16:52:00,
2013-02-26 11:01:00,20.0,18.0,-100.00,NNE,31,3.0,5.0,93,0.00,,,0.00,230.000000,,2013-02-26 17:01:00,
2013-02-26 11:11:00,23.0,22.0,-100.00,North,9,6.0,7.0,95,0.00,,,0.00,276.000000,,2013-02-26 17:11:00,
2013-02-26 11:32:00,23.0,22.0,-100.00,North,9,6.0,7.0,95,0.00,,,0.00,276.000000,,2013-02-26 17:32:00,
2013-02-26 11:42:00,23.0,22.0,-100.00,North,9,6.0,7.0,95,0.00,,,0.00,276.000000,,2013-02-26 17:42:00,
2013-02-26 11:52:00,23.0,22.0,-100.00,North,9,6.0,7.0,95,0.00,,,0.00,276.000000,,2013-02-26 17:52:00,
2013-02-26 12:01:00,23.0,22.0,-100.00,North,9,6.0,7.0,95,0.00,,,0.00,276.000000,,2013-02-26 18:01:00,
2013-02-26 12:11:00,26.0,25.0,-100.00,NNE,20,10.0,13.0,96,0.00,,,0.00,398.000000,,2013-02-26 18:11:00,
2013-02-26 12:32:00,26.0,25.0,-100.00,NNE,20,10.0,13.0,96,0.00,,,0.00,398.000000,,2013-02-26 18:32:00,
2013-02-26 12:42:00,26.0,25.0,-100.00,NNE,20,10.0,13.0,96,0.00,,,0.00,398.000000,,2013-02-26 18:42:00,
2013-02-26 12:52:00,26.0,25.0,-100.00,NNE,20,10.0,13.0,96,0.00,,,0.00,398.000000,,2013-02-26 18:52:00,
2013-02-26 13:01:00,26.0,25.0,-100.00,NNE,20,10.0,13.0,96,0.00,,,0.00,398.000000,,2013-02-26 19:01:00,
2013-02-26 13:11:00,28.0,27.0,-100.00,North,355,11.0,13.0,95,0.00,,,0.00,575.000000,,2013-02-26 19:11:00,
2013-02-26 13:42:00,28.0,27.0,-100.00,North,355,11.0,13.0,95,0.00,,,0.00,575.000000,,2013-02-26 19:42:00,
2013-02-26 13:52:00,28.0,27.0,-100.00,North,355,11.0,13.0,95,0.00,,,0.00,575.000000,,2013-02-26 19:52:00,
2013-02-26 14:01:00,28.0,27.0,-100.00,North,355,11.0,13.0,95,0.00,,,0.00,575.000000,,2013-02-26 20:01:00,
2013-02-26 16:11:00,29.0,23.0,-100.00,North,353,14.0,19.0,79,-99.99,,,0.00,244.000000,,2013-02-26 22:11:00,
2013-02-26 16:42:00,29.0,23.0,-100.00,North,353,14.0,19.0,79,-99.99,,,0.00,244.000000,,2013-02-26 22:42:00,
2013-02-26 16:52:00,29.0,23.0,-100.00,North,353,14.0,19.0,79,-99.99,,,0.00,244.000000,,2013-02-26 22:52:00,
2013-02-26 17:01:00,29.0,23.0,-100.00,North,353,14.0,19.0,79,-99.99,,,0.00,244.000000,,2013-02-26 23:01:00,
2013-02-26 17:11:00,29.0,23.0,-100.00,NNE,13,7.0,16.0,78,0.00,,,0.00,138.000000,,2013-02-26 23:11:00,
2013-02-26 17:32:00,29.0,23.0,-100.00,NNE,13,7.0,16.0,78,0.00,,,0.00,138.000000,,2013-02-26 23:32:00,
2013-02-26 17:42:00,29.0,23.0,-100.00,NNE,13,7.0,16.0,78,0.00,,,0.00,138.000000,,2013-02-26 23:42:00,
2013-02-26 17:52:00,29.0,23.0,-100.00,NNE,13,7.0,16.0,78,0.00,,,0.00,138.000000,,2013-02-26 23:52:00,
2013-02-26 18:01:00,29.0,23.0,-100.00,NNE,13,7.0,16.0,78,0.00,,,0.00,138.000000,,2013-02-27 00:01:00,
2013-02-26 18:11:00,26.0,20.0,-100.00,NNW,336,6.0,10.0,79,0.00,,,0.00,26.000000,,2013-02-27 00:11:00,
2013-02-26 18:42:00,26.0,20.0,-100.00,NNW,336,6.0,10.0,79,0.00,,,0.00,26.000000,,2013-02-27 00:42:00,
2013-02-26 18:52:00,26.0,20.0,-100.00,NNW,336,6.0,10.0,79,0.00,,,0.00,26.000000,,2013-02-27 00:52:00,
2013-02-26 19:01:00,26.0,20.0,-100.00,NNW,336,6.0,10.0,79,0.00,,,0.00,26.000000,,2013-02-27 01:01:00,
2013-02-26 19:11:00,23.0,20.0,-100.00,NW,320,10.0,12.0,87,0.00,,,0.00,0.000000,,2013-02-27 01:11:00,
2013-02-26 19:32:00,23.0,20.0,-100.00,NW,320,10.0,12.0,87,0.00,,,0.00,0.000000,,2013-02-27 01:32:00,
2013-02-26 19:42:00,23.0,20.0,-100.00,NW,320,10.0,12.0,87,0.00,,,0.00,0.000000,,2013-02-27 01:42:00,
2013-02-26 19:52:00,23.0,20.0,-100.00,NW,320,10.0,12.0,87,0.00,,,0.00,0.000000,,2013-02-27 01:52:00,
2013-02-26 20:01:00,23.0,20.0,-100.00,NW,320,10.0,12.0,87,0.00,,,0.00,0.000000,,2013-02-27 02:01:00,
2013-02-26 20:11:00,22.0,19.0,-100.00,NW,325,8.0,12.0,89,0.00,,,0.00,0.000000,,2013-02-27 02:11:00,
2013-02-26 20:42:00,22.0,19.0,-100.00,NW,325,8.0,12.0,89,0.00,,,0.00,0.000000,,2013-02-27 02:42:00,
2013-02-26 20:52:00,22.0,19.0,-100.00,NW,325,8.0,12.0,89,0.00,,,0.00,0.000000,,2013-02-27 02:52:00,
2013-02-26 21:02:00,22.0,19.0,-100.00,NW,325,8.0,12.0,89,0.00,,,0.00,0.000000,,2013-02-27 03:02:00,
2013-02-26 21:11:00,24.0,20.0,-100.00,NNW,338,9.0,12.0,83,0.00,,,0.00,0.000000,,2013-02-27 03:11:00,
2013-02-26 21:32:00,24.0,20.0,-100.00,NNW,338,9.0,12.0,83,0.00,,,0.00,0.000000,,2013-02-27 03:32:00,
2013-02-26 21:42:00,24.0,20.0,-100.00,NNW,338,9.0,12.0,83,0.00,,,0.00,0.000000,,2013-02-27 03:42:00,
2013-02-26 21:52:00,24.0,20.0,-100.00,NNW,338,9.0,12.0,83,0.00,,,0.00,0.000000,,2013-02-27 03:52:00,
2013-02-26 22:01:00,24.0,20.0,-100.00,NNW,338,9.0,12.0,83,0.00,,,0.00,0.000000,,2013-02-27 04:01:00,
2013-02-26 22:11:00,22.0,18.0,-100.00,NW,320,11.0,12.0,85,0.00,,,0.00,0.000000,,2013-02-27 04:11:00,
2013-02-26 22:32:00,22.0,18.0,-100.00,NW,320,11.0,12.0,85,0.00,,,0.00,0.000000,,2013-02-27 04:32:00,
2013-02-26 22:42:00,22.0,18.0,-100.00,NW,320,11.0,12.0,85,0.00,,,0.00,0.000000,,2013-02-27 04:42:00,
2013-02-26 22:52:00,22.0,18.0,-100.00,NW,320,11.0,12.0,85,0.00,,,0.00,0.000000,,2013-02-27 04:52:00,
2013-02-26 23:01:00,22.0,18.0,-100.00,NW,320,11.0,12.0,85,0.00,,,0.00,0.000000,,2013-02-27 05:01:00,
2013-02-26 23:11:00,24.0,19.0,-100.00,NNW,331,8.0,12.0,80,0.00,,,-99.99,0.000000,,2013-02-27 05:11:00,
2013-02-26 23:32:00,24.0,19.0,-100.00,NNW,331,8.0,12.0,80,0.00,,,-99.99,0.000000,,2013-02-27 05:32:00,
2013-02-26 23:42:00,24.0,19.0,-100.00,NNW,331,8.0,12.0,80,0.00,,,-99.99,0.000000,,2013-02-27 05:42:00,
2013-02-26 23:52:00,24.0,19.0,-100.00,NNW,331,8.0,12.0,80,0.00,,,-99.99,0.000000,,2013-02-27 05:52:00,